GFSMW_850_spd_297.txt.gz
Wind_Speed
27 30 35 36 37 35 35 34 34 33 32 30 28 26 24 22 19 17 15 12 11 11 11 11 11 12 12 12 11 10 11 12 14 14 16 13 10 8 5 3 2 1 2
22 27 37 40 41 36 32 35 35 34 33 30 28 27 24 23 21 20 18 16 15 14 13 13 13 13 13 12 11 11 13 14 18 15 14 9 6 6 5 3 2 1 2
29 31 37 43 42 41 40 38 38 35 34 33 31 28 25 24 25 24 21 19 16 15 14 15 15 14 13 12 11 12 14 16 20 19 10 6 5 10 4 4 3 3 3
28 32 37 39 42 43 41 39 39 38 37 34 33 32 30 29 27 24 22 20 18 18 16 15 16 15 13 12 12 12 13 14 19 21 18 7 6 8 6 6 5 5 4
31 33 36 35 37 41 43 40 38 37 37 35 33 32 32 31 27 25 23 21 20 19 17 15 15 14 12 12 12 13 14 16 18 20 19 11 9 9 7 8 9 8 5
31 32 32 33 35 36 41 41 41 39 38 38 36 35 32 32 30 27 24 24 22 19 17 16 15 14 12 11 11 12 15 17 20 17 20 15 12 13 13 8 13 8 5
19 24 29 33 35 38 40 44 44 43 42 42 40 37 34 32 30 28 26 24 21 20 17 15 14 13 12 10 11 12 14 18 20 19 19 19 16 14 14 11 16 10 6
8 16 22 27 30 35 39 43 45 44 45 45 44 40 38 35 33 28 26 23 20 18 16 15 14 12 11 10 11 12 13 14 15 14 13 11 9 8 9 11 12 11 6
9 8 16 23 29 32 34 36 38 42 47 46 46 42 39 36 33 28 24 23 22 19 16 15 14 12 12 11 11 12 13 13 13 12 11 9 8 8 10 11 9 7 6
16 7 11 18 26 29 30 33 35 39 44 46 45 42 39 36 32 28 25 25 21 19 16 15 14 13 12 12 13 13 14 14 14 13 12 11 10 10 11 11 9 8 8
21 20 12 13 18 22 26 27 31 35 38 40 44 42 37 35 30 28 29 25 22 20 18 16 15 14 14 14 15 15 15 15 15 14 13 12 12 11 11 10 10 9 10
23 25 20 12 2 12 18 22 26 30 34 37 36 35 34 34 31 29 28 25 23 21 18 17 16 16 16 16 16 16 16 15 15 14 13 11 12 11 10 10 9 9 9
25 27 26 20 12 5 10 15 20 26 32 35 32 32 33 31 31 31 29 26 25 22 20 19 18 18 18 18 19 17 17 17 15 14 13 11 11 10 9 8 8 8 8
25 26 27 24 18 11 8 9 14 18 23 27 31 32 34 32 30 31 28 27 26 24 21 19 19 19 19 20 21 20 20 19 17 16 14 12 12 10 9 8 7 7 7
25 26 25 25 21 14 9 7 9 13 17 21 26 31 31 31 29 31 30 28 27 24 22 21 21 21 21 22 22 21 20 19 18 16 15 13 12 10 9 8 7 6 6
22 24 24 27 25 21 14 10 8 10 14 17 22 27 32 33 31 34 30 30 30 27 24 22 22 23 24 22 21 21 21 19 17 16 16 14 13 11 9 8 6 5 5
22 22 25 27 28 27 24 17 13 11 12 14 17 26 31 37 36 33 32 32 32 29 27 25 25 25 24 24 23 22 21 19 18 16 15 14 13 11 10 8 6 4 4
20 21 22 23 28 30 28 22 17 12 12 14 17 21 30 36 34 33 34 35 32 31 29 28 27 28 25 26 26 24 22 21 19 18 16 15 14 13 11 9 6 3 3
19 23 27 28 28 31 30 22 10 6 9 14 18 21 24 31 33 34 35 34 33 33 29 28 28 29 28 29 28 28 26 24 22 21 19 16 15 13 12 9 6 3 2
21 22 25 25 27 28 30 25 14 8 11 15 17 21 25 27 30 31 32 33 32 32 32 30 30 30 29 29 30 30 28 27 25 23 20 18 16 14 12 10 7 3 0
21 22 22 24 24 25 24 24 16 11 12 16 20 21 24 27 30 32 34 32 33 35 35 30 31 32 31 31 32 31 28 26 25 24 22 20 18 16 14 11 8 5 2
19 21 21 21 23 22 21 19 20 18 17 14 17 20 22 26 31 35 35 30 31 35 37 34 35 34 34 33 33 31 28 26 24 23 22 20 19 17 15 13 9 6 5
18 18 17 20 21 23 20 18 15 19 20 20 17 18 19 23 29 35 38 35 32 34 40 40 40 38 37 36 34 32 30 27 25 23 21 20 20 19 17 15 11 9 6
20 19 17 17 21 23 21 19 16 16 21 17 21 21 22 21 26 33 39 42 39 41 43 45 42 41 41 40 39 37 33 30 28 24 23 23 22 22 19 17 14 11 8
23 23 19 19 22 23 22 21 19 17 15 19 12 18 24 26 26 31 37 40 42 41 41 44 44 46 46 45 43 41 39 38 35 30 28 28 28 26 24 21 17 13 10
22 23 24 23 22 23 26 23 21 19 19 18 14 10 20 30 31 31 34 39 37 36 40 41 41 43 43 43 40 39 39 38 35 34 33 33 30 28 25 23 19 15 12

GFSMW_850_spd_300.txt.gz
Wind_Speed
28 28 27 28 28 27 27 28 27 28 26 25 24 23 23 23 22 19 19 17 15 11 11 11 10 10 10 10 10 10 10 10 11 11 10 8 8 7 6 4 2 1 2
26 28 29 30 30 30 29 30 30 33 31 26 24 22 20 22 20 21 19 19 15 12 11 11 11 10 11 10 10 10 10 11 13 6 7 6 3 4 5 3 2 2 1
28 30 32 33 31 32 33 33 33 35 33 30 25 26 25 24 24 23 22 20 16 13 13 12 12 12 12 12 12 12 12 10 13 13 5 5 4 8 3 4 3 2 2
27 28 30 31 33 33 31 34 32 34 34 33 32 33 30 28 25 24 23 22 19 17 15 14 13 13 13 13 12 13 13 11 12 14 17 10 6 6 5 4 5 4 2
30 31 31 31 32 30 35 38 42 40 37 37 34 33 27 19 18 24 25 23 21 19 17 15 14 13 13 13 13 13 14 14 12 12 11 8 4 6 4 6 7 6 4
24 25 25 26 28 33 33 40 46 40 39 38 36 35 28 22 22 25 25 24 22 20 18 17 15 13 13 13 13 14 14 14 14 13 12 10 8 6 5 5 10 8 7
18 20 23 25 26 30 39 45 47 44 42 40 36 37 29 29 28 27 26 26 25 20 18 18 15 14 13 13 13 14 15 16 16 17 14 17 17 14 9 8 11 8 6
8 16 20 23 26 28 31 31 35 43 39 43 41 39 35 36 30 29 30 28 19 19 19 18 16 14 13 13 13 14 15 17 18 19 19 17 16 13 11 11 13 12 6
7 3 9 17 20 21 29 33 35 37 45 45 40 37 38 37 33 30 25 22 18 20 20 17 16 15 13 13 13 14 15 16 16 16 15 13 12 12 13 13 12 8 9
13 9 2 8 15 18 21 24 27 30 36 38 38 38 38 37 31 28 24 23 20 19 22 19 17 15 13 13 14 15 15 15 16 16 15 14 12 12 13 13 12 12 8
17 15 13 7 11 13 14 19 19 20 26 28 29 32 33 32 29 27 24 23 23 22 23 19 18 16 14 15 16 16 16 16 16 16 16 14 13 13 13 13 11 10 8
18 18 18 14 16 9 5 7 8 11 15 19 21 27 28 27 27 26 20 24 23 25 22 20 18 16 15 16 17 17 19 18 17 17 16 15 15 14 14 13 13 12 11
20 20 21 20 16 9 6 2 3 7 11 15 16 18 19 22 26 25 23 24 25 26 23 21 18 17 17 17 18 19 19 19 18 17 17 16 15 15 15 14 13 12 10
19 20 20 19 16 13 10 5 1 2 7 12 16 19 21 22 25 27 18 28 29 28 24 21 20 19 18 19 20 20 20 20 19 19 18 16 15 14 14 13 12 11 9
18 19 19 18 17 15 13 8 4 1 3 6 11 14 17 23 27 29 29 28 30 26 23 24 23 21 21 22 23 23 22 21 21 20 19 18 17 16 15 13 13 11 9
16 16 17 18 19 19 17 13 6 2 5 7 8 11 15 23 27 31 32 29 30 29 30 30 27 24 24 24 23 23 23 22 21 20 20 17 17 15 13 11 11 10 9
15 17 17 17 18 20 21 19 12 5 5 6 7 10 13 18 25 29 33 34 33 32 31 26 26 24 23 23 24 24 24 24 23 21 20 20 18 16 15 13 10 9 7
12 13 15 16 18 19 21 20 15 4 2 2 6 11 11 14 21 28 32 35 33 32 31 28 26 24 25 23 25 24 21 22 22 21 20 19 19 18 16 14 11 9 7
10 11 13 14 16 19 20 19 16 10 5 3 2 7 9 11 17 23 31 33 34 33 31 28 27 25 26 24 27 27 24 22 23 21 20 20 19 18 17 16 13 10 7
9 10 11 12 14 15 15 16 14 13 11 7 4 5 9 10 11 18 27 31 32 30 30 30 26 25 27 27 28 30 25 25 25 25 23 22 22 20 19 17 14 11 8
7 9 9 9 11 13 13 12 13 15 15 13 9 6 7 10 10 14 23 29 31 32 32 30 27 27 27 26 29 33 31 29 26 27 27 26 23 22 20 18 16 13 10
9 9 10 9 9 11 12 12 12 13 14 14 11 9 8 9 11 13 20 25 30 32 32 31 30 28 25 30 30 31 30 26 26 26 26 26 24 23 21 20 17 14 12
13 12 12 12 10 10 11 11 12 12 13 14 13 10 9 10 11 14 17 24 30 35 34 33 32 32 28 30 32 32 33 32 26 23 24 23 23 24 23 21 19 17 14
16 16 16 15 14 12 12 12 12 12 12 12 14 10 10 11 13 14 16 20 29 36 37 37 35 33 33 33 34 36 35 35 29 27 24 22 24 25 26 24 22 20 17
17 18 18 19 18 17 15 14 13 12 12 11 12 12 11 14 15 17 19 21 23 29 39 37 36 37 36 39 38 39 41 41 36 34 30 29 30 30 30 27 26 24 22
18 18 19 20 20 20 19 18 16 16 14 13 11 11 12 12 18 21 22 22 25 26 29 34 38 35 36 42 37 36 39 39 40 39 37 36 35 33 32 31 29 27 24

GFSMW_850_spd_303.txt.gz
Wind_Speed
31 31 30 30 31 30 29 29 29 28 26 23 22 21 20 18 17 16 15 16 13 15 15 10 13 12 9 9 11 10 11 10 12 10 9 7 7 8 6 5 3 0 1
30 33 32 32 32 32 31 31 29 28 28 24 22 21 20 18 17 16 17 16 18 16 15 12 12 13 11 13 11 12 12 11 13 10 7 5 4 4 5 4 3 4 2
30 32 34 34 34 34 35 33 34 31 30 25 24 21 20 19 18 18 16 18 19 17 15 14 11 12 12 12 12 13 13 13 14 12 6 5 5 10 4 5 4 3 3
30 33 35 36 39 38 37 36 34 32 30 28 25 25 25 22 20 18 15 19 21 19 17 15 15 13 11 10 11 13 14 14 13 13 12 8 5 7 6 6 5 5 3
32 33 35 36 38 38 41 43 38 32 33 32 28 28 23 19 15 16 16 19 22 21 18 16 16 14 13 13 13 15 16 14 12 11 11 10 6 6 5 8 8 7 5
30 31 31 31 34 35 36 35 36 36 34 33 32 34 26 19 18 18 18 17 19 20 19 18 16 15 14 14 15 16 15 15 13 13 12 11 10 8 7 5 10 8 7
25 29 32 32 34 36 34 34 33 32 41 38 39 33 25 22 23 21 19 18 18 19 21 19 17 15 15 15 15 15 14 15 14 14 13 12 12 9 8 7 10 10 9
22 23 19 30 32 32 34 36 31 30 32 38 41 34 27 25 22 20 19 21 22 23 20 18 17 16 15 15 15 14 14 14 15 16 13 11 11 12 10 10 13 12 8
3 8 22 24 22 25 29 31 34 36 36 34 34 32 33 31 31 29 29 31 25 20 17 18 17 17 15 15 15 15 15 15 17 17 19 14 12 11 10 11 13 11 9
6 3 5 7 19 20 21 26 29 33 39 37 39 37 34 33 32 36 34 26 21 19 19 18 18 18 15 14 15 15 15 15 16 16 16 15 13 12 12 13 13 12 8
10 7 8 5 6 10 18 21 20 19 24 30 36 36 36 37 37 39 34 24 23 22 20 20 20 19 14 14 15 15 14 15 14 15 16 15 14 12 11 12 9 8 8
12 11 10 12 13 16 13 16 16 21 24 23 22 31 32 34 35 33 29 24 25 24 22 20 21 17 16 16 17 16 14 16 16 15 15 14 13 13 13 12 12 12 9
15 15 14 13 12 9 11 9 12 15 17 15 21 23 24 28 28 30 27 26 23 25 20 19 19 14 14 18 19 16 16 17 17 17 16 16 15 14 14 13 13 13 11
16 17 17 15 14 12 10 3 6 11 13 16 18 19 21 23 26 28 29 30 28 27 22 20 17 11 12 16 16 19 19 19 18 18 18 16 15 15 15 14 14 13 13
17 17 17 16 15 13 9 5 2 7 10 12 14 16 17 20 22 26 26 27 26 25 21 19 16 17 15 20 20 21 21 20 20 20 18 18 19 19 18 13 14 14 11
15 16 15 16 16 15 14 9 4 4 7 9 10 11 12 14 17 20 27 28 27 26 24 25 23 29 22 22 24 22 21 19 19 19 19 21 19 17 17 16 16 16 13
14 15 16 16 17 18 18 16 10 5 5 2 2 6 9 11 14 16 22 27 28 29 27 27 27 19 21 25 23 25 20 20 19 19 20 19 21 19 18 16 14 13 14
12 13 13 14 16 16 17 16 15 12 9 5 7 7 6 10 12 15 18 24 28 30 30 26 23 22 22 24 22 23 21 20 20 20 20 19 20 21 19 17 16 15 14
9 10 11 11 12 14 13 13 14 12 9 8 6 10 7 7 10 13 15 19 27 31 28 25 24 25 25 23 21 24 24 22 22 21 21 21 21 22 21 19 18 16 15
7 8 8 8 10 11 11 10 10 11 12 10 5 4 11 9 7 9 12 18 24 27 27 27 26 23 25 22 22 26 25 23 21 19 20 25 21 22 22 21 20 17 16
3 5 6 6 7 9 9 9 9 11 11 11 8 5 4 10 9 6 9 15 22 26 27 27 23 24 26 23 23 27 28 21 21 22 24 26 25 23 24 22 19 16 17
3 4 5 5 6 6 8 8 9 10 11 10 10 6 5 5 9 9 8 11 18 25 28 24 23 22 24 23 23 28 29 24 21 22 22 26 27 24 25 25 24 22 20
7 7 7 6 7 6 6 7 8 8 9 9 9 9 6 6 8 13 10 11 15 24 29 32 33 32 27 28 24 26 30 31 22 21 23 27 23 26 26 28 25 23 22
10 10 11 11 10 9 9 9 9 9 8 8 8 9 6 7 8 12 14 12 14 18 24 31 34 34 32 33 29 29 32 36 31 28 28 24 23 26 28 29 28 27 25
14 14 14 14 13 12 12 12 11 11 11 11 10 9 8 6 9 13 13 16 16 13 21 27 31 35 36 35 32 30 35 38 39 35 33 30 29 29 32 31 31 29 27
19 18 18 17 17 16 15 14 14 14 14 14 13 10 10 10 9 10 16 21 20 21 18 19 23 31 35 34 32 28 28 36 40 41 40 37 34 33 34 33 33 32 31

GFSMW_850_spd_306.txt.gz
Wind_Speed
33 32 36 32 35 36 38 36 34 30 30 25 27 23 21 23 19 19 18 17 17 21 19 16 18 17 12 10 15 15 15 14 18 17 14 13 12 7 4 2 5 4 4
36 35 37 35 35 36 40 36 37 33 32 27 27 25 22 22 22 21 20 17 17 18 21 15 15 17 16 18 17 16 16 15 18 13 8 8 6 11 10 11 9 3 3
41 40 40 38 37 36 41 38 38 37 35 29 28 25 23 23 20 22 23 21 21 18 17 19 15 18 19 18 17 16 17 17 14 14 4 6 6 12 9 8 6 7 7
42 46 45 45 40 40 41 37 39 40 37 33 31 30 29 29 27 24 22 21 22 20 20 19 18 16 19 15 13 16 19 17 16 18 19 12 7 8 7 8 11 10 9
41 49 51 49 45 40 45 42 41 40 39 38 31 30 29 28 27 25 22 22 22 23 22 20 18 15 14 13 11 14 19 20 14 16 20 17 11 10 9 12 10 7 7
49 42 52 54 48 42 42 46 44 42 40 41 35 31 31 29 29 29 25 24 23 24 23 21 18 16 15 16 15 16 16 18 18 16 14 16 14 11 10 8 11 8 9
42 36 40 44 46 49 42 49 47 43 44 39 40 32 34 28 29 31 29 26 23 23 24 22 19 17 15 16 15 17 17 19 19 17 16 13 12 13 11 10 12 13 10
27 45 54 53 50 48 44 46 45 42 37 38 41 38 37 34 23 33 30 25 21 20 22 21 17 15 16 16 15 15 15 16 20 21 18 19 19 20 17 9 15 17 14
1 5 17 31 46 49 45 43 44 40 42 42 42 43 41 36 32 29 29 23 24 23 21 17 16 18 17 16 15 16 15 16 17 21 25 21 23 23 21 17 17 20 13
9 10 4 3 25 37 40 41 44 50 47 45 40 36 35 35 34 33 37 32 25 18 21 19 19 20 19 17 13 16 15 17 16 20 22 23 21 17 18 21 17 16 12
13 12 13 5 5 19 27 34 39 42 38 37 34 36 37 39 35 40 40 33 21 25 24 23 20 20 19 16 14 16 14 15 15 18 17 19 19 17 18 22 23 24 19
11 11 12 15 13 20 24 23 30 30 36 34 36 36 39 36 41 43 34 28 25 24 26 22 20 20 19 18 17 16 13 15 13 17 16 18 16 15 16 18 18 16 20
12 11 13 15 13 14 17 19 19 19 20 24 27 24 35 34 34 36 33 30 25 27 26 24 25 22 22 19 14 12 12 13 15 16 16 15 16 16 16 18 19 19 15
15 13 13 15 16 13 12 7 12 14 16 19 22 21 21 21 24 28 28 25 27 27 25 25 21 20 19 19 18 16 12 14 15 16 16 18 17 17 17 17 16 18 18
18 15 15 15 14 14 11 8 4 8 14 15 13 12 15 17 21 23 23 23 26 26 23 24 21 23 21 19 15 16 17 22 21 21 21 22 21 22 18 18 16 15 17
18 16 15 15 15 14 11 8 7 5 9 10 12 14 14 14 16 17 19 22 26 29 29 26 25 26 25 20 21 17 14 18 23 22 24 24 23 22 19 19 18 16 16
17 17 15 14 15 16 16 12 10 6 8 4 5 7 9 13 15 16 18 21 27 29 26 28 28 28 24 20 23 20 18 20 23 23 25 25 24 21 20 20 16 18 19
14 14 14 13 13 15 15 17 15 13 8 7 5 1 8 11 12 13 16 19 24 29 29 29 27 23 25 23 23 20 20 23 24 23 24 22 22 22 22 21 20 20 20
11 12 12 11 12 13 13 15 16 14 11 10 5 1 5 5 9 11 13 17 21 25 27 28 28 26 26 25 22 22 23 24 24 23 24 23 23 23 23 22 21 22 22
9 9 9 10 11 12 11 11 13 13 12 10 7 2 3 5 2 7 10 13 16 20 24 26 25 24 25 24 22 23 26 26 25 25 25 23 24 22 23 23 23 23 22
5 5 6 8 8 9 9 9 10 11 10 10 8 4 3 5 6 3 4 9 13 16 21 23 24 24 23 22 21 22 28 28 27 27 26 25 25 24 22 24 24 22 22
1 2 3 4 5 5 6 7 8 8 8 8 8 6 5 7 9 7 3 4 9 14 19 23 24 23 25 24 22 23 30 27 28 28 27 27 28 25 22 26 26 25 23
5 5 4 2 3 3 3 4 4 5 6 7 6 6 3 1 8 9 7 4 6 11 17 20 24 23 24 26 24 24 29 29 27 27 26 26 26 24 25 27 30 28 26
7 7 7 7 6 5 4 5 4 4 4 5 5 4 5 2 3 9 7 7 7 11 18 21 27 27 29 30 25 24 25 34 30 26 25 25 25 24 28 32 33 32 30
12 10 9 10 9 9 9 8 8 7 6 5 5 5 4 7 4 7 11 10 10 10 10 17 23 29 35 36 32 28 27 33 38 34 30 32 31 29 31 36 35 33 32
18 16 15 13 13 12 12 12 12 10 10 9 8 7 7 8 8 7 11 12 12 14 15 15 15 17 22 27 32 31 30 28 36 41 40 39 38 36 35 35 36 36 35